Temp
10 10 10 10 10 10 11 11 11 11 11 11 12 12 13 13 13 13 13 13 13 13 13 13 14 14 15 15 16 16 15 15 15 15 15 15 15 15 15 16 16 16 15 15 15 15 14 14 14 13 13 12 12 11 11 10 10 10 10 10 9 9 9 9 9 9 9 9 9 9 8 8 8 7 7 7 7 7 7 7 7 7 7 7 7 6
9 9 9 10 10 10 10 10 11 11 11 11 11 12 12 12 12 13 13 13 13 13 13 13 14 14 15 15 16 16 15 15 15 15 15 15 15 15 16 16 16 16 15 15 15 14 14 14 14 13 12 12 11 11 11 10 10 10 9 9 9 9 9 9 9 9 9 9 9 9 8 8 8 7 7 7 7 7 7 7 7 7 7 6 6 6
8 8 8 9 9 10 10 10 10 10 11 11 11 11 12 12 12 12 12 13 13 13 13 13 14 14 15 15 15 15 15 15 15 15 15 15 16 16 16 16 16 15 15 15 15 14 14 14 13 13 12 12 11 11 10 10 10 10 9 9 9 9 9 9 9 8 8 9 9 8 8 8 8 7 7 7 7 7 7 7 6 6 6 6 6 6
8 8 8 8 9 9 10 10 10 10 10 11 11 11 11 11 11 12 12 12 13 13 13 13 13 14 15 15 15 15 15 15 15 15 16 16 16 16 16 16 15 15 15 15 14 14 14 13 13 12 12 11 11 10 10 10 10 9 9 9 9 9 9 8 8 8 8 8 8 8 8 8 7 7 7 7 7 6 6 6 6 6 6 6 6 6
8 8 8 8 8 9 9 9 10 10 10 10 10 11 11 11 11 11 12 12 12 12 12 13 13 14 14 15 14 14 14 14 15 15 16 16 16 16 16 15 15 15 15 15 14 14 14 13 13 12 11 11 10 10 10 10 9 9 9 9 9 9 8 8 8 8 8 8 8 8 7 7 7 7 7 6 6 6 6 6 6 6 6 6 6 6
7 8 8 8 8 8 9 9 9 9 9 10 10 10 10 11 11 11 11 11 12 12 12 13 13 13 14 14 14 14 14 14 15 16 16 16 16 16 16 15 15 15 14 14 14 13 13 13 12 12 11 11 10 10 9 9 9 9 9 9 9 9 8 8 8 8 8 8 7 7 7 7 6 6 6 6 6 6 6 6 5 5 5 5 5 5
7 7 8 8 8 8 8 8 9 9 9 9 9 10 10 10 10 11 11 11 11 11 12 12 12 13 13 13 14 14 14 15 16 16 16 16 16 16 15 15 14 14 14 13 13 12 12 12 11 11 10 10 10 9 9 9 9 9 9 9 9 8 8 8 8 8 7 7 7 6 6 6 6 5 5 5 5 5 5 5 5 5 5 5 5 5
7 7 7 7 7 7 7 8 8 9 9 9 9 9 9 9 10 10 10 10 11 11 11 11 12 12 13 13 14 14 14 15 15 16 16 15 15 14 14 14 14 14 13 12 12 12 11 11 10 10 10 9 9 9 9 9 9 9 9 9 9 8 8 8 8 7 7 7 6 6 6 5 5 5 4 4 4 4 4 4 4 4 5 5 5 6
7 7 7 7 7 7 7 7 7 8 9 9 9 9 9 9 9 9 10 10 10 10 11 11 11 12 13 13 14 14 14 14 14 14 14 14 13 13 13 14 13 13 12 12 11 11 11 10 10 9 9 9 9 9 9 9 9 9 9 9 9 8 8 8 7 7 7 6 6 6 6 5 5 4 4 4 3 3 4 4 4 5 5 5 5 6
8 7 7 7 7 7 7 7 7 7 8 8 9 9 9 9 8 9 9 9 9 10 10 10 11 11 12 12 13 13 13 13 13 13 13 13 13 13 13 13 13 12 12 11 11 11 10 10 9 9 9 9 9 9 9 9 9 9 9 8 8 8 8 8 7 7 7 6 6 6 6 5 5 4 4 3 3 3 4 4 4 5 5 5 5 5
8 7 7 7 7 7 7 7 7 7 7 8 8 8 9 9 9 8 8 8 8 9 9 10 10 11 11 11 12 12 12 12 12 12 12 12 12 12 12 12 12 11 11 11 10 10 10 9 9 9 9 9 9 9 9 9 9 9 8 8 8 8 8 7 7 7 7 6 6 6 5 5 4 4 3 3 3 4 4 4 4 5 5 5 5 5
7 7 7 7 6 6 7 6 6 7 7 7 7 7 8 8 9 9 9 8 8 8 9 9 10 10 10 10 11 11 12 12 11 11 11 11 11 11 11 11 10 10 10 10 10 10 9 9 9 9 9 9 9 9 9 9 9 8 8 8 8 8 8 7 7 7 7 6 6 6 5 4 4 3 3 3 4 4 4 4 4 4 4 5 5 5
8 7 7 6 6 6 6 6 6 6 6 7 7 7 7 8 8 9 9 8 8 8 8 9 9 9 9 10 10 10 11 11 11 10 10 10 10 10 10 9 9 9 9 9 9 9 9 9 9 9 10 9 9 9 9 9 8 8 8 8 8 8 7 7 7 7 6 6 6 5 5 4 4 3 3 4 4 4 4 4 4 4 4 4 4 5
7 7 7 6 6 6 6 5 6 6 6 7 7 8 8 7 8 8 8 7 7 8 8 8 8 8 8 9 9 9 10 10 10 10 9 9 9 9 9 9 9 9 9 8 8 9 9 9 9 10 9 9 9 9 9 8 8 8 8 8 8 8 7 7 7 7 6 6 6 5 4 4 3 3 3 3 4 4 4 4 4 4 4 4 4 4
7 7 6 6 6 6 6 6 6 6 7 7 8 8 7 7 7 7 7 7 6 7 7 7 7 7 8 8 8 9 9 9 9 9 9 8 8 9 9 8 8 8 8 8 8 8 9 9 9 9 9 9 9 9 8 8 8 8 8 8 8 7 7 7 7 6 6 5 5 5 4 4 3 3 3 3 3 4 4 4 4 4 4 4 4 4
7 7 7 6 6 6 6 6 6 7 7 7 7 7 7 7 7 7 7 6 6 6 6 6 6 6 6 7 7 8 8 9 9 8 8 8 8 8 8 8 8 8 8 8 8 8 8 9 9 9 9 9 9 8 8 8 8 8 8 8 7 7 7 7 6 6 5 5 5 4 4 4 3 3 3 3 3 3 3 4 4 4 4 4 4 4
7 7 7 6 6 6 6 6 6 7 7 7 7 7 7 7 7 7 7 6 6 6 6 6 6 6 5 6 7 7 8 8 8 8 8 8 8 8 8 8 8 8 8 8 8 8 8 8 8 8 8 8 8 8 8 8 8 7 7 7 7 7 6 6 6 5 5 5 4 4 4 4 3 3 2 2 3 3 3 4 4 4 4 4 4 4
6 6 7 6 6 6 5 6 6 6 6 6 6 6 6 6 6 6 6 6 6 6 7 7 7 7 6 6 6 6 7 7 7 7 7 7 7 7 8 8 8 8 8 8 8 8 8 8 8 8 8 8 8 8 8 8 7 7 7 7 7 6 6 6 5 5 5 4 4 4 4 3 3 2 2 2 2 3 3 3 3 3 3 3 3 4
6 6 6 6 5 5 5 5 5 6 5 5 6 6 6 6 6 6 6 6 6 7 7 7 8 8 8 6 6 6 6 7 7 7 6 6 7 7 7 7 7 7 7 7 7 7 8 8 8 8 8 8 8 8 8 7 7 7 7 7 6 6 6 5 5 5 4 4 4 4 3 3 2 2 2 2 2 2 2 2 2 2 3 3 3 3
6 6 6 5 5 5 5 5 5 5 5 5 5 6 5 5 5 5 5 6 6 7 7 7 7 7 7 6 6 6 6 6 6 6 5 5 6 6 6 6 6 6 6 6 7 7 7 7 8 8 8 8 8 7 7 7 7 7 6 6 6 6 5 5 5 4 4 4 3 3 3 2 2 2 2 2 2 2 2 1 2 2 2 2 3 3
6 6 6 6 5 5 5 5 5 5 5 5 5 5 5 5 5 5 5 5 6 6 7 7 7 6 6 5 5 5 5 5 5 5 4 4 4 5 5 5 6 5 5 5 6 6 6 7 7 7 7 7 7 7 7 7 6 6 6 6 6 5 5 5 5 4 4 3 3 3 2 2 2 2 2 1 1 1 1 1 1 1 2 2 2 3
6 6 6 6 6 5 5 5 5 5 5 5 5 5 5 5 5 5 5 5 5 6 6 6 5 5 5 5 4 4 4 4 5 4 4 3 3 3 4 4 5 5 4 4 5 5 5 6 6 6 6 6 6 6 6 6 6 6 6 5 5 5 5 4 4 4 3 3 3 3 2 2 2 1 1 1 1 1 1 1 1 1 2 2 2 2
6 6 5 5 6 5 5 5 5 5 5 5 5 5 5 5 5 5 5 5 5 5 4 4 4 4 4 4 4 4 4 4 4 4 4 3 3 3 3 4 4 4 3 4 4 5 5 5 5 5 5 5 5 5 5 5 5 5 5 5 4 4 4 4 4 3 3 3 3 2 2 2 1 1 1 1 1 1 1 1 1 1 1 2 2 2
6 6 5 5 5 5 5 5 5 5 5 5 5 5 5 5 5 5 5 5 4 4 3 3 3 3 3 3 3 3 3 3 4 4 4 3 3 2 3 3 3 3 3 4 4 4 5 5 5 5 5 5 5 5 5 5 5 4 4 4 4 4 3 3 3 3 3 2 2 2 2 2 1 1 1 1 1 1 1 1 1 1 1 1 1 1
6 6 6 5 5 5 5 5 5 5 5 5 5 5 5 5 5 4 4 4 4 4 4 4 3 3 3 3 3 3 4 4 4 4 4 3 2 2 3 4 4 3 3 3 4 4 4 4 4 4 4 4 4 4 4 4 4 4 4 4 4 3 3 3 3 3 2 2 2 2 2 1 1 1 1 1 1 1 1 1 1 1 1 1 1 1
6 6 6 6 5 5 5 5 5 5 5 5 5 5 5 5 4 4 4 4 4 4 4 3 3 3 3 3 3 3 4 4 5 5 5 4 3 2 3 4 4 3 3 3 3 4 4 4 4 4 4 4 4 4 4 4 4 4 4 4 3 3 3 3 3 2 2 2 2 2 1 1 1 1 1 1 1 1 1 1 1 1 0 0 1 1
6 6 6 6 5 5 5 5 5 5 5 5 5 5 5 5 4 4 3 3 4 4 4 4 3 3 3 3 3 3 4 5 5 5 5 5 3 2 2 3 3 3 2 2 3 3 3 3 3 3 3 3 3 3 3 3 3 3 3 3 3 3 3 2 2 2 2 2 2 1 1 1 1 1 1 1 1 1 1 1 1 1 0 0 0 0
6 6 6 5 5 5 5 5 5 5 5 5 5 5 5 5 4 4 3 3 4 4 5 4 4 3 3 3 3 3 3 4 4 5 5 5 3 2 2 2 3 3 2 2 2 2 3 3 3 3 3 3 3 3 3 3 3 3 3 3 3 2 2 2 2 2 2 1 1 1 1 1 1 1 1 1 1 1 1 1 1 0 0 0 0 0
5 5 5 5 5 5 5 5 5 4 4 4 5 5 5 5 5 4 4 4 4 4 5 5 4 4 3 3 2 2 3 3 4 4 5 4 3 2 1 2 2 2 2 2 1 2 2 2 2 3 3 3 3 2 2 2 2 2 2 2 2 2 2 2 2 1 1 1 1 1 1 1 1 1 1 1 1 1 1 0 0 0 0 0 0 0
5 5 5 5 5 5 5 4 4 4 4 4 4 4 5 5 5 4 4 4 4 5 5 4 4 4 3 2 1 1 2 2 3 4 4 4 2 1 1 1 2 2 2 2 1 1 1 1 2 2 2 2 2 2 2 2 2 2 2 2 2 2 2 2 1 1 1 1 1 1 1 1 1 1 1 1 1 1 1 1 0 0 0 0 0 0
4 4 4 4 4 4 4 4 4 4 4 4 4 4 4 4 5 4 4 4 4 5 5 4 4 3 3 3 2 2 2 2 3 3 4 4 3 2 1 1 1 2 2 2 2 1 1 1 1 1 2 2 2 2 2 2 2 2 2 2 1 1 1 1 1 1 1 1 1 1 1 0 0 0 0 0 1 1 1 1 1 0 0 0 0 -0
4 4 4 4 4 4 4 4 4 4 4 4 4 4 4 4 4 4 4 4 5 5 5 4 4 3 3 4 4 4 3 3 3 3 3 3 3 2 2 1 1 1 2 3 3 3 2 1 1 1 1 2 2 2 2 2 2 2 1 1 1 1 1 1 1 1 1 1 1 1 1 1 0 0 0 0 0 1 1 1 1 0 0 0 0 -0
4 4 4 4 4 4 4 4 4 4 4 4 4 4 4 4 4 4 4 4 4 5 5 4 4 3 3 4 4 4 3 3 3 3 3 3 3 2 1 1 1 1 1 2 3 3 2 1 0 0 1 1 1 2 2 2 2 1 1 1 1 1 1 1 1 1 1 1 1 1 1 1 1 1 1 0 1 1 1 1 1 0 0 0 -0 -0
3 3 3 3 3 3 3 3 3 3 3 3 3 4 4 4 4 4 4 4 4 4 4 4 4 4 3 3 3 3 3 3 3 3 3 3 3 2 1 1 1 1 1 1 2 2 2 0 -0 0 0 0 1 1 1 1 1 1 1 1 1 1 1 1 1 1 1 1 1 1 1 1 1 1 1 1 1 1 1 1 1 1 0 0 -0 -0
3 3 3 3 3 3 3 3 3 3 3 3 3 3 3 4 4 4 4 4 4 4 4 4 4 4 4 3 3 3 3 3 3 3 3 3 3 2 1 1 1 1 1 1 1 1 1 -0 -0 -0 -0 -0 -0 0 1 1 1 1 1 1 1 1 1 1 1 1 1 1 1 1 1 1 1 1 1 1 1 1 1 1 1 1 0 0 0 -0
3 3 3 3 3 3 3 3 3 3 3 3 3 3 3 3 3 3 3 3 4 4 4 4 4 4 4 4 4 3 4 4 4 3 3 3 3 2 2 1 1 1 1 1 1 1 0 -0 -1 -1 -1 -1 -1 -0 -0 0 0 0 1 1 1 1 0 0 0 0 0 0 0 0 0 0 0 0 0 0 0 0 0 1 1 1 0 0 0 -0
2 2 2 2 3 3 3 2 2 2 2 2 2 2 3 3 3 3 3 3 3 3 3 3 3 3 3 4 4 4 4 4 4 3 2 2 2 2 2 1 1 1 1 1 1 1 1 0 -1 -1 -1 -0 -0 -1 -1 -1 -0 -0 -0 -0 0 0 -0 0 0 0 0 0 0 0 0 0 0 0 0 0 0 0 0 0 1 1 1 0 0 0
2 2 2 2 2 2 2 2 2 2 2 2 2 2 2 2 2 2 3 3 3 3 3 3 3 3 3 3 3 4 4 4 3 3 2 2 2 2 2 1 1 1 1 1 1 1 1 0 -0 -0 -0 -0 -0 -1 -1 -1 -1 -1 -1 -1 -1 -1 -1 -1 -0 -0 -0 -0 -0 -0 -0 -0 0 0 0 0 0 0 0 0 0 0 0 0 0 0
2 2 2 2 2 2 2 2 1 1 1 1 1 1 2 2 2 2 2 2 2 2 2 2 2 2 2 3 3 3 3 3 2 2 2 2 2 1 1 1 1 0 1 1 1 1 1 1 1 1 1 0 -0 -1 -1 -1 -1 -1 -1 -1 -1 -1 -1 -1 -1 -1 -1 -0 -0 -0 -0 -0 -0 -0 -0 0 0 0 0 0 0 0 0 0 0 0
2 2 2 1 1 1 1 1 1 1 1 1 1 1 1 1 1 2 2 2 2 2 2 2 2 2 2 2 2 2 2 2 1 1 1 1 1 1 1 1 1 0 0 0 0 1 1 1 1 1 1 1 0 -1 -1 -1 -1 -1 -1 -2 -2 -2 -1 -1 -1 -1 -1 -1 -1 -1 -0 -1 -0 -0 -0 0 0 0 0 0 0 0 0 0 0 0
1 1 1 1 1 1 1 1 1 1 1 1 1 1 1 1 1 1 1 1 1 1 1 1 1 1 2 2 2 1 1 1 1 1 1 1 1 1 1 1 0 0 -0 -0 0 0 0 1 1 1 1 1 0 -0 -1 -1 -1 -1 -1 -1 -2 -2 -2 -2 -2 -2 -1 -1 -1 -1 -1 -1 -1 -1 -0 -0 0 0 0 0 0 0 0 0 0 0
1 0 0 0 0 0 0 1 1 1 1 1 1 0 0 1 1 1 0 0 0 1 1 1 1 1 1 1 1 1 1 1 1 1 1 1 1 1 0 0 0 0 -0 -0 -0 -0 -0 0 0 0 0 0 -0 -1 -1 -1 -1 -1 -1 -1 -1 -2 -2 -2 -2 -2 -2 -2 -1 -1 -1 -1 -1 -1 -1 -0 -0 -0 -0 0 0 0 0 0 0 0
0 -0 -0 -0 -0 -0 0 0 0 0 0 0 0 -0 0 0 0 0 0 0 -0 0 0 0 0 0 -0 -0 -0 0 0 0 0 0 0 0 1 0 0 0 -0 -0 -0 -1 -1 -1 -0 -0 -0 -0 -0 -0 -0 -0 -1 -1 -1 -1 -1 -1 -1 -1 -2 -2 -2 -2 -2 -2 -2 -1 -1 -1 -1 -1 -1 -1 -0 -0 -0 -0 0 0 0 0 0 0
-1 -1 -1 -1 -0 -0 -0 -0 -0 -0 -0 -0 -1 -1 -0 -0 0 0 -0 -0 -0 -0 -0 -0 -0 -0 -1 -1 -1 -1 -1 -0 -0 0 -0 -0 -0 -0 -0 -0 -1 -1 -1 -1 -1 -1 -1 -0 -0 -0 -1 -1 -0 -0 -0 -1 -1 -1 -1 -1 -1 -1 -1 -2 -2 -2 -2 -2 -2 -2 -1 -1 -1 -1 -1 -1 -1 -0 -0 -0 -0 -0 -0 0 0 0
-1 -1 -1 -1 -1 -1 -1 -1 -1 -1 -1 -1 -1 -1 -1 -1 -0 -0 -0 -1 -1 -1 -1 -1 -1 -1 -2 -2 -2 -2 -2 -1 -1 -1 -1 -1 -1 -1 -1 -1 -1 -1 -1 -1 -1 -1 -1 -1 -1 -1 -1 -1 -1 -0 -0 -0 -1 -1 -1 -1 -1 -1 -1 -1 -2 -2 -2 -2 -2 -2 -2 -2 -1 -1 -1 -1 -1 -1 -0 -0 -0 -0 -0 -0 -0 -0
-2 -2 -2 -1 -1 -1 -1 -1 -1 -1 -1 -1 -1 -1 -1 -1 -1 -1 -1 -1 -1 -1 -1 -1 -1 -1 -2 -2 -3 -3 -2 -2 -2 -1 -1 -1 -1 -1 -1 -1 -2 -2 -2 -2 -2 -1 -1 -1 -1 -1 -2 -2 -1 -1 -0 -0 -1 -1 -1 -1 -1 -1 -2 -2 -2 -2 -2 -2 -2 -2 -2 -2 -2 -2 -1 -1 -1 -1 -1 -1 -0 -0 -0 -0 -0 -0
-2 -2 -2 -2 -2 -1 -1 -1 -1 -1 -2 -2 -2 -1 -1 -1 -1 -1 -1 -1 -1 -2 -2 -1 -1 -1 -2 -2 -2 -2 -3 -3 -3 -2 -2 -2 -1 -1 -1 -2 -2 -2 -2 -2 -2 -2 -2 -2 -2 -2 -2 -2 -1 -1 -1 -1 -1 -1 -1 -1 -1 -2 -2 -2 -2 -2 -2 -2 -2 -2 -2 -2 -2 -2 -2 -1 -1 -1 -1 -1 -1 -1 -1 -1 -1 -1
-2 -2 -2 -2 -2 -2 -2 -2 -2 -2 -2 -2 -2 -2 -2 -1 -1 -1 -1 -1 -2 -2 -2 -1 -1 -1 -1 -2 -2 -2 -2 -2 -3 -3 -2 -2 -2 -2 -2 -2 -2 -2 -2 -2 -2 -2 -2 -2 -2 -2 -2 -1 -1 -1 -1 -1 -1 -1 -1 -1 -1 -1 -2 -2 -2 -2 -2 -2 -2 -2 -2 -2 -2 -2 -2 -1 -1 -2 -2 -1 -1 -1 -1 -1 -1 -1
-2 -2 -2 -2 -2 -2 -2 -2 -2 -2 -2 -2 -2 -2 -2 -2 -2 -2 -2 -2 -2 -2 -1 -1 -1 -1 -1 -2 -2 -2 -2 -2 -2 -3 -3 -3 -2 -2 -2 -2 -2 -3 -3 -2 -2 -2 -2 -2 -2 -2 -2 -1 -1 -1 -1 -1 -1 -1 -1 -1 -1 -1 -2 -2 -2 -2 -2 -2 -2 -2 -2 -2 -2 -2 -2 -1 -1 -1 -2 -2 -2 -1 -1 -1 -1 -1
-2 -2 -2 -2 -2 -2 -2 -2 -2 -2 -2 -2 -2 -2 -2 -2 -2 -2 -2 -2 -2 -1 -1 -1 -1 -1 -1 -1 -2 -2 -2 -2 -2 -3 -3 -3 -3 -3 -3 -3 -3 -3 -3 -3 -3 -3 -3 -2 -2 -2 -2 -2 -1 -1 -1 -1 -1 -1 -1 -1 -1 -1 -1 -2 -2 -2 -2 -2 -2 -2 -2 -2 -2 -2 -2 -1 -1 -1 -1 -1 -2 -2 -1 -1 -0 -0
-2 -2 -2 -2 -2 -2 -2 -2 -2 -2 -2 -2 -2 -2 -2 -2 -2 -2 -2 -2 -2 -1 -1 -1 -1 -1 -1 -1 -1 -2 -2 -2 -2 -3 -3 -3 -3 -3 -3 -3 -3 -3 -3 -2 -2 -2 -2 -2 -2 -2 -2 -2 -2 -1 -1 -1 -1 -1 -1 -1 -1 -1 -1 -2 -2 -2 -1 -2 -2 -2 -2 -2 -2 -2 -2 -2 -1 -1 -1 -1 -1 -1 -1 -0 -0 0
Height
753 754 756 758 760 762 763 765 767 768 769 769 771 772 773 774 776 777 778 779 781 782 783 783 784 785 786 787 789 790 791 793 793 794 795 796 797 798 799 800 801 802 803 803 805 806 807 808 809 811 813 815 818 820 822 824 826 828 829 830 831 833 836 838 842 844 847 849 851 853 854 854 853 853 853 854 855 855 857 859 861 862 864 864 865 866
752 753 755 757 759 761 762 764 765 767 767 768 769 770 772 773 774 775 777 778 779 780 781 782 782 783 783 785 786 788 789 790 791 792 793 794 795 796 797 798 798 799 800 801 802 804 805 806 808 809 811 813 815 818 820 823 824 826 827 828 830 833 836 838 842 844 846 848 850 851 852 852 853 853 853 853 854 855 856 858 860 862 863 864 865 866
751 753 754 756 758 759 761 763 764 765 766 767 768 769 770 772 773 774 775 777 778 779 780 780 780 781 781 783 784 786 787 788 789 790 791 792 793 794 795 796 797 798 798 799 800 801 803 804 806 807 809 811 813 816 818 820 822 823 825 827 830 833 835 838 841 843 845 847 848 850 851 852 852 852 852 853 854 854 856 857 860 861 862 863 865 866
750 752 753 754 756 758 759 761 762 764 765 766 767 768 769 771 772 773 774 775 776 778 778 779 778 778 779 781 782 784 785 786 787 788 789 790 791 792 793 793 794 795 796 797 798 799 800 802 803 805 807 809 811 813 816 818 820 822 824 826 829 832 835 838 840 842 844 846 847 849 850 851 851 852 852 853 853 854 855 857 859 860 862 863 864 866
749 750 751 753 755 757 758 759 761 763 764 765 766 768 768 769 770 771 772 774 775 776 776 777 777 777 778 779 781 782 783 784 785 786 786 788 788 790 791 792 793 793 794 795 795 796 798 799 801 803 804 807 809 811 813 816 818 820 823 825 828 831 834 836 839 841 843 844 846 847 849 850 850 851 851 852 853 853 854 856 858 859 860 862 863 865
748 749 750 751 753 755 757 758 760 761 763 764 765 766 767 768 769 770 771 772 773 774 774 775 775 776 777 778 779 780 781 782 783 783 784 785 787 788 788 790 791 792 793 793 794 795 796 797 799 801 803 805 807 809 811 814 816 819 822 824 827 830 833 835 838 839 841 843 845 846 847 849 849 850 851 852 852 853 853 855 856 857 858 860 861 863
747 748 749 751 752 754 756 757 758 760 761 763 763 765 766 767 768 769 770 771 772 772 773 773 774 774 775 776 778 778 779 780 780 781 782 783 784 786 787 788 789 790 791 793 793 794 795 797 798 800 802 803 805 807 809 812 815 818 821 823 827 829 832 834 836 838 840 842 843 845 846 847 847 848 850 851 851 852 853 854 855 856 857 858 860 862
745 748 748 750 752 753 755 756 757 758 759 760 761 763 764 765 766 767 768 769 770 771 772 772 773 773 774 775 776 777 777 778 778 778 780 782 783 784 785 786 787 788 790 791 793 795 796 797 798 800 802 803 805 807 809 812 814 817 820 823 826 828 830 833 835 837 838 840 841 842 843 844 845 847 848 849 850 851 852 853 855 856 857 858 859 861
742 745 747 748 749 752 754 755 756 757 758 758 759 760 762 763 765 766 767 768 769 770 770 771 772 772 773 773 774 775 775 775 775 777 778 780 782 783 784 785 786 787 788 790 792 793 796 798 799 800 802 803 805 807 810 813 815 818 820 823 825 827 829 831 833 835 836 838 839 840 842 843 844 846 847 848 849 851 852 853 854 855 856 857 858 860
739 742 744 746 748 749 752 753 754 755 756 757 758 758 759 760 762 764 766 767 768 768 769 770 770 771 772 772 773 773 773 774 775 776 778 779 781 782 783 784 785 786 787 788 790 792 793 796 799 800 802 803 805 808 811 814 816 818 820 822 824 826 828 830 832 833 835 837 838 839 841 843 844 845 847 848 849 850 852 853 854 855 856 857 858 859
738 740 742 745 747 748 750 751 752 753 755 756 757 757 758 758 760 762 764 765 766 767 768 769 770 770 771 771 772 772 773 773 775 776 778 779 781 782 783 784 785 786 787 788 789 791 792 795 798 801 803 805 807 809 812 814 816 818 820 821 823 825 827 828 831 833 834 836 837 838 840 842 844 845 846 847 849 850 852 853 854 855 855 856 857 859
736 738 741 743 746 748 749 750 751 752 753 755 756 757 758 758 758 759 761 763 764 766 767 768 769 770 770 771 771 772 772 773 774 776 778 780 781 783 784 785 787 788 788 789 790 791 793 795 798 801 804 807 808 810 812 814 816 818 819 821 822 824 826 828 829 831 833 834 836 838 839 841 843 845 846 847 849 850 851 852 853 854 855 856 857 858
733 736 739 742 744 745 747 748 750 751 752 753 753 754 756 757 758 758 759 761 763 764 765 767 768 769 770 770 771 771 771 772 773 775 777 779 781 782 783 785 787 789 790 792 793 794 794 796 799 802 805 807 809 811 812 814 816 817 819 821 822 823 825 827 828 830 831 833 834 836 838 840 842 844 846 847 848 849 851 852 852 853 854 855 856 857
731 734 737 740 742 743 744 745 747 748 749 749 750 751 752 754 756 758 759 761 762 763 764 766 767 769 770 770 770 771 771 772 773 775 777 779 781 782 783 784 786 788 789 791 793 795 796 797 799 802 805 807 809 811 812 814 816 817 819 820 822 823 824 826 827 828 830 832 833 835 838 839 841 843 845 846 847 848 850 851 851 852 853 854 855 856
728 732 735 737 739 740 741 742 743 743 744 746 748 750 752 754 755 756 758 759 762 763 764 765 767 768 769 770 770 770 771 771 773 775 777 779 781 782 783 783 785 787 788 790 793 794 796 796 798 800 803 806 808 810 812 814 816 817 818 820 821 823 824 825 826 828 829 830 832 834 836 838 840 842 843 845 846 847 848 849 850 851 852 853 854 855
726 728 731 733 735 737 738 739 740 741 743 744 747 748 751 753 754 754 755 758 760 762 764 765 767 769 770 769 769 770 771 771 772 773 776 779 781 782 783 783 784 786 788 790 792 794 795 796 797 798 801 804 807 809 811 813 815 817 818 819 821 822 823 824 825 826 828 829 831 833 835 837 839 840 842 843 845 846 847 848 849 851 852 852 853 854
725 727 728 730 733 735 736 737 738 740 741 743 744 746 748 750 751 752 753 755 758 761 762 764 766 768 770 770 769 769 770 771 772 773 775 778 780 782 783 783 784 785 788 789 791 793 794 795 797 798 800 803 805 808 810 812 814 816 817 818 820 821 822 823 824 825 827 829 831 832 834 835 837 839 841 842 843 845 846 847 848 850 851 852 852 853
724 726 727 729 731 733 734 736 738 738 739 741 743 744 747 748 750 751 752 753 755 758 760 762 763 764 767 769 769 768 768 770 771 772 774 777 780 782 783 784 784 784 786 789 791 793 794 795 796 798 800 802 805 807 809 811 813 814 816 818 818 820 821 822 823 825 826 828 830 831 833 834 836 838 840 841 843 844 845 846 847 848 850 851 852 852
725 725 727 728 730 732 733 735 736 737 738 738 740 743 746 748 750 750 751 751 753 754 757 759 761 762 764 765 767 767 767 768 769 771 773 777 780 782 783 784 784 784 786 788 790 792 794 795 797 798 800 802 804 806 808 810 812 813 815 816 818 819 820 821 823 824 826 827 829 830 832 833 835 837 839 840 841 843 844 845 846 847 848 849 850 851
725 726 726 727 729 731 733 734 734 735 736 736 737 739 743 746 748 750 750 751 751 753 755 757 759 761 763 764 765 766 767 768 769 770 773 776 779 781 782 783 783 783 785 787 789 791 793 795 797 798 800 802 804 805 807 809 810 812 814 815 817 818 819 821 822 823 825 827 828 830 831 833 834 836 838 839 840 841 842 843 844 845 846 847 848 849
725 726 726 727 728 730 732 733 734 735 736 736 737 738 741 744 747 749 749 750 751 753 755 757 758 760 762 763 765 767 767 768 768 770 772 775 778 780 782 783 783 783 783 785 788 790 792 794 796 798 800 802 803 805 806 808 810 811 813 814 816 817 818 820 821 823 824 826 827 829 830 832 833 834 836 837 838 840 841 842 843 844 845 846 847 848
724 725 726 727 728 729 730 732 734 736 737 737 737 738 740 743 746 748 748 749 750 752 754 756 758 759 761 763 765 767 768 768 769 769 771 775 778 780 781 781 782 782 783 785 787 789 792 793 796 798 799 801 803 804 806 808 809 811 812 814 815 816 818 819 821 822 823 825 827 828 830 831 832 833 835 836 838 839 840 841 842 843 844 845 846 847
725 725 726 727 728 729 730 732 734 736 737 738 738 738 740 743 744 746 748 748 750 751 753 754 756 758 761 763 765 767 768 769 769 770 772 775 778 780 780 781 781 782 783 785 787 789 792 794 796 798 800 802 803 804 806 808 809 810 812 813 814 816 817 819 820 822 823 824 826 828 829 830 832 833 834 835 837 838 839 841 842 843 843 844 844 845
726 726 727 728 729 730 731 732 734 735 737 738 739 740 742 744 746 747 748 749 749 750 752 754 757 759 762 764 766 768 769 770 771 772 773 775 778 779 780 781 781 782 784 786 788 791 793 795 797 799 801 803 804 805 806 808 809 810 812 813 814 816 817 818 820 821 823 824 826 827 828 830 831 832 833 835 836 837 838 840 841 842 842 843 843 844
726 727 728 728 729 730 731 732 733 735 737 738 740 742 743 745 747 748 748 749 750 752 753 755 758 761 763 765 767 768 770 771 772 773 773 775 778 780 780 781 782 783 785 788 790 792 794 796 798 800 802 803 805 806 807 808 809 811 812 813 814 816 817 818 820 821 823 824 825 827 828 829 830 832 833 834 835 837 838 839 840 841 841 842 842 843
726 727 728 729 730 731 732 733 734 735 736 738 739 741 743 745 747 748 750 751 752 753 754 757 759 762 763 765 767 769 770 771 772 773 773 775 777 779 781 782 783 784 787 789 791 793 794 796 798 800 802 803 805 806 807 808 809 811 812 813 814 816 817 818 820 821 822 823 825 826 828 829 830 831 832 833 835 836 837 838 838 839 840 841 841 842
727 728 729 730 731 732 733 733 734 735 737 738 739 741 743 744 747 749 751 751 752 753 754 757 759 762 764 766 767 768 770 772 773 773 774 775 777 779 781 783 784 785 787 790 792 794 795 797 798 800 802 803 805 806 808 808 810 811 812 813 814 816 817 818 820 821 822 823 824 826 827 828 829 831 832 833 834 835 836 837 838 838 839 840 841 841
728 729 729 730 731 732 733 734 735 736 737 738 739 741 742 744 746 748 749 750 751 753 754 756 758 761 763 765 767 768 770 771 773 774 775 776 778 780 782 783 784 786 788 790 793 794 796 798 799 800 802 803 805 806 808 809 810 811 812 813 814 815 817 818 819 821 822 823 824 825 827 828 829 830 831 832 833 834 835 836 837 838 838 839 840 840
729 730 730 731 732 732 733 734 735 737 738 738 740 741 742 744 746 747 748 750 751 753 754 755 757 759 761 764 766 768 770 771 772 773 775 776 778 780 782 783 784 786 788 790 793 795 797 798 799 800 802 803 804 806 808 809 810 811 812 813 814 815 816 818 819 820 821 822 823 825 826 827 828 829 830 831 832 833 834 835 836 837 838 838 839 839
730 731 731 732 732 733 734 735 736 737 738 739 741 742 743 745 746 748 749 750 752 753 754 755 757 758 760 763 767 769 770 771 772 773 774 776 778 780 782 783 784 786 787 790 793 796 798 798 799 800 801 803 804 805 807 808 809 811 812 813 814 815 816 817 818 819 821 822 823 824 825 826 827 828 829 830 831 832 833 834 835 836 836 837 838 838
730 731 732 732 733 733 734 735 736 737 739 740 742 743 744 746 747 748 749 751 752 753 753 755 756 757 759 762 765 768 769 770 771 772 774 775 777 779 781 783 784 785 786 788 791 794 797 798 799 799 800 802 803 804 806 807 808 809 811 812 813 814 816 817 818 819 820 821 822 823 824 825 826 827 828 829 830 831 832 833 834 834 835 836 836 837
730 731 731 732 732 733 733 735 736 738 739 741 742 743 745 746 747 749 750 752 753 753 754 754 755 757 758 759 761 764 766 767 769 771 773 774 776 778 780 781 783 785 786 787 788 790 793 796 797 798 800 801 802 803 805 806 807 808 809 811 812 813 814 816 817 818 819 820 821 822 823 824 825 826 827 828 829 830 831 832 833 833 834 834 835 835
730 731 732 732 732 733 733 735 736 738 739 741 742 744 745 746 748 749 751 752 753 753 754 754 755 756 758 759 761 762 764 766 768 770 772 774 776 778 779 781 782 784 785 787 787 788 790 792 794 796 798 799 801 802 803 805 806 807 808 809 810 812 813 814 815 817 818 819 820 821 822 823 824 825 826 827 828 828 829 830 831 832 833 833 833 834
730 731 732 732 733 733 734 735 737 738 740 741 743 744 746 747 748 750 751 753 753 753 753 753 754 756 758 759 761 763 764 765 768 769 772 773 775 777 778 780 781 783 784 786 787 788 789 791 792 794 796 798 799 800 802 803 804 805 807 808 809 810 811 813 814 815 816 818 818 819 821 822 823 823 824 825 826 827 828 829 830 831 831 832 832 833
730 731 732 733 733 734 735 737 738 739 740 742 743 745 746 748 749 750 751 752 752 753 753 753 754 755 757 759 760 762 763 765 767 769 771 773 774 776 778 779 780 782 783 785 786 787 789 790 792 793 794 796 798 799 800 801 802 803 805 806 807 808 810 811 812 813 815 816 817 818 819 820 821 822 823 824 825 826 827 828 828 829 830 830 831 831
731 732 733 733 734 735 736 738 738 740 741 742 744 745 747 748 749 750 751 751 752 752 752 753 755 756 758 759 760 761 763 764 766 768 770 772 773 775 777 778 779 781 782 784 785 787 788 790 791 792 793 795 797 798 798 799 800 802 803 804 806 807 808 809 811 812 813 814 816 817 817 818 819 820 821 822 823 824 825 826 827 828 829 829 830 830
731 732 733 734 735 736 737 738 739 740 741 742 744 745 747 748 749 749 750 750 751 751 752 753 754 756 758 759 760 762 763 765 766 768 770 771 773 774 776 777 779 780 782 783 785 786 788 790 792 793 794 794 795 796 797 798 799 800 801 802 803 805 806 808 809 810 812 813 814 815 816 817 818 819 820 821 822 823 824 825 826 827 828 828 828 829
732 733 734 735 736 737 738 738 739 740 741 743 744 745 747 748 748 749 749 750 750 751 752 753 754 756 758 759 761 762 764 765 766 768 769 771 773 774 775 777 779 780 782 783 784 786 788 789 791 793 793 794 794 795 795 796 798 799 800 801 802 803 804 806 807 808 810 811 813 814 814 815 816 818 818 820 821 822 823 823 824 825 826 827 827 828
732 733 734 735 736 737 738 739 740 741 742 743 744 745 746 747 748 748 749 750 751 751 753 753 755 756 758 759 761 762 764 765 767 768 769 771 772 773 775 776 778 780 781 783 784 786 787 788 790 791 792 793 794 794 795 796 796 798 798 800 801 802 803 804 805 807 808 810 811 813 813 814 815 816 817 818 819 820 821 822 822 823 824 825 826 827
732 733 734 735 736 737 738 739 740 741 742 743 744 745 746 747 748 748 749 750 751 752 753 754 755 757 758 759 761 762 764 765 767 768 769 771 772 773 774 776 778 779 781 783 784 786 787 788 789 790 791 792 793 794 794 795 796 797 798 799 800 800 801 802 803 805 806 808 809 811 812 813 813 814 815 817 818 818 819 820 821 822 823 823 824 825
732 733 734 735 736 737 738 739 740 741 742 743 744 745 746 747 748 748 749 750 752 753 754 755 756 758 759 760 761 763 764 765 767 768 769 771 772 773 774 776 777 779 780 782 784 785 787 788 789 790 791 792 792 793 793 794 795 796 796 798 798 799 799 800 802 803 804 806 808 809 810 811 812 813 814 815 816 817 818 818 819 820 821 822 823 823
732 733 734 735 736 737 738 739 741 742 743 743 744 745 746 747 747 748 749 751 752 753 755 756 757 758 759 761 762 763 764 766 767 768 769 771 772 773 774 776 777 778 780 782 783 785 787 788 789 790 790 791 792 792 793 793 794 795 795 796 797 798 799 799 800 801 803 804 806 808 809 810 811 812 813 814 815 816 816 817 818 819 820 821 821 822
732 733 734 735 736 737 738 740 741 742 743 744 744 745 746 747 748 748 750 751 752 754 755 756 757 758 760 761 763 764 765 766 767 768 770 771 772 773 775 776 777 778 779 781 783 784 786 788 788 789 790 790 791 792 792 793 793 794 794 795 796 797 798 798 798 799 801 802 804 806 807 808 809 810 812 813 813 814 815 816 817 818 818 819 820 820
732 733 734 735 736 738 739 740 741 742 743 744 744 745 746 747 748 749 750 751 753 754 755 757 758 759 760 762 763 764 765 766 768 768 770 771 772 773 775 776 777 778 779 781 782 784 785 787 788 788 789 790 790 791 791 792 792 793 793 794 795 795 796 796 796 798 799 801 802 804 805 807 808 809 811 812 812 813 813 814 815 816 817 818 818 819
732 733 734 735 737 738 740 741 741 742 743 743 744 745 746 748 748 749 750 752 753 754 755 757 758 759 761 762 763 764 765 766 768 768 770 771 772 773 774 776 777 778 779 781 782 783 785 786 787 788 788 789 789 790 790 790 791 792 792 793 794 794 795 795 795 796 797 799 801 802 804 805 807 808 809 810 811 811 812 813 813 814 815 816 817 818
733 734 735 736 737 738 739 740 741 742 743 743 744 745 747 748 749 750 751 752 753 754 756 757 758 759 761 762 763 764 765 766 768 768 770 771 772 773 774 775 777 778 779 781 782 783 784 785 786 786 787 788 788 789 789 789 790 791 791 792 793 793 794 794 794 795 796 798 799 801 802 804 806 807 808 809 809 810 810 811 812 813 814 815 815 816
733 734 735 736 737 738 739 739 740 741 743 743 744 746 747 748 749 750 751 752 753 754 756 757 758 759 760 761 763 764 765 766 767 768 769 770 772 773 774 775 776 777 778 780 781 783 784 785 785 785 786 787 787 788 788 788 789 790 790 791 792 793 793 793 794 794 796 797 798 800 801 803 805 806 807 808 808 809 809 810 810 811 812 813 814 814
733 733 734 735 736 737 738 739 740 741 742 743 744 745 747 748 748 749 751 752 753 754 755 757 758 759 760 761 762 763 764 765 767 768 769 770 771 773 773 775 776 778 779 780 781 782 783 783 784 784 785 785 786 787 787 788 788 789 789 790 791 792 792 793 793 794 795 797 798 799 800 802 803 804 806 807 808 808 808 808 809 809 810 811 812 813
732 733 733 734 735 736 737 738 739 741 742 743 744 745 746 747 748 749 750 752 753 754 755 757 758 759 760 761 762 763 764 765 766 768 768 770 771 772 773 775 776 778 779 780 781 782 783 783 783 783 784 784 785 786 786 787 787 788 789 789 790 791 792 793 793 794 795 796 797 798 799 801 802 803 805 806 806 807 807 807 807 808 808 809 810 811
732 732 733 734 735 736 737 738 739 740 741 742 743 745 746 747 748 749 750 752 753 754 755 756 757 758 759 760 762 763 764 765 766 768 768 770 771 772 773 775 777 778 779 780 781 782 782 782 782 782 783 783 784 785 785 786 787 787 788 789 790 791 792 792 793 794 795 796 797 798 799 800 802 803 804 805 805 806 806 806 806 806 807 808 808 809
731 732 733 733 734 735 736 738 738 740 741 742 743 744 745 747 748 749 751 752 753 754 755 756 757 758 758 760 761 762 763 764 766 767 768 770 771 772 773 775 776 778 779 780 781 781 782 782 782 782 782 783 783 784 785 785 786 787 788 789 790 791 791 792 793 793 794 795 796 797 798 800 801 802 803 803 804 805 805 805 805 805 805 806 807 808
Wind_Speed
19 23 26 27 26 25 26 28 27 25 25 26 27 27 28 28 27 27 28 28 29 29 30 31 33 34 35 35 34 33 32 30 29 29 28 28 28 28 28 27 28 29 30 31 32 32 33 37 43 46 45 43 42 41 40 38 37 36 36 35 34 33 32 30 29 27 25 22 20 18 19 20 21 21 21 21 20 20 19 18 17 17 16 15 14 13
17 20 22 24 25 24 24 27 27 25 25 25 26 26 27 27 27 27 28 28 27 27 27 28 29 31 32 33 32 31 30 29 28 27 27 27 27 27 27 27 27 28 28 30 31 33 35 40 45 47 46 45 43 42 41 40 39 38 37 36 35 33 32 30 28 27 25 22 20 18 18 19 20 21 21 21 20 20 19 18 17 17 16 15 14 12
16 18 20 22 24 24 23 26 27 27 25 25 26 26 26 26 26 27 27 27 27 26 26 26 27 28 30 31 31 29 28 27 27 27 27 27 27 27 27 27 27 27 28 29 32 34 38 43 47 48 47 46 45 44 43 42 40 39 38 37 35 33 31 29 28 27 25 22 20 18 18 18 20 20 21 20 20 19 18 17 17 16 15 14 13 12
17 18 19 21 23 24 24 25 27 27 25 25 25 25 24 24 25 26 27 27 26 26 26 26 26 27 29 30 29 28 27 27 27 27 27 27 27 28 28 28 27 27 27 30 33 37 41 46 49 49 48 48 47 46 44 43 42 41 39 37 35 33 31 29 28 27 25 22 20 18 17 17 18 19 20 20 19 19 18 17 16 15 14 14 13 12
18 19 21 21 22 23 23 25 27 27 25 24 24 24 24 24 24 25 25 25 25 25 26 25 26 27 29 29 29 28 27 27 27 27 27 27 28 29 29 27 26 26 27 31 36 40 44 48 50 51 50 49 48 47 46 44 43 41 39 37 34 32 31 30 28 27 24 21 19 17 16 17 17 18 19 19 18 18 18 17 16 16 15 14 13 12
18 19 21 22 22 22 23 24 26 26 25 24 23 23 23 24 24 24 23 23 23 24 25 25 25 27 28 29 29 28 27 27 27 28 28 28 29 29 28 26 25 26 29 34 40 44 48 51 52 52 51 50 49 48 47 45 44 41 39 36 34 32 31 29 28 25 23 20 18 17 17 17 17 18 18 19 18 18 18 18 17 17 16 15 14 14
17 18 20 21 21 21 22 23 25 26 25 24 23 23 23 23 22 22 22 22 22 22 23 23 24 25 27 28 28 27 26 26 26 27 27 28 28 28 27 25 25 28 32 38 43 47 49 51 51 51 51 50 50 49 48 46 43 41 38 35 33 31 30 29 27 25 23 21 20 19 19 19 19 19 19 19 19 18 18 18 17 17 16 15 15 15
17 18 19 20 19 19 20 22 25 26 26 25 24 22 21 21 20 20 20 20 20 20 20 20 21 22 24 25 25 24 23 23 23 23 23 23 24 24 25 26 28 32 37 42 45 47 48 49 49 49 49 49 49 48 47 44 42 38 36 33 32 31 30 29 28 26 25 23 21 20 20 20 20 20 20 19 18 18 17 17 16 16 15 15 15 15
20 19 20 20 20 19 18 20 23 25 26 26 25 24 22 20 19 19 19 18 18 18 18 18 18 19 20 21 21 20 19 19 19 19 20 21 22 24 26 29 32 37 42 46 47 48 48 48 48 48 49 48 47 46 43 41 38 35 33 31 31 30 30 29 28 27 25 22 21 19 19 19 19 19 19 17 16 16 16 16 16 16 16 16 16 16
22 21 20 21 22 22 19 19 22 25 25 24 24 24 24 23 21 19 18 17 17 17 17 17 17 17 18 18 18 18 18 18 18 19 21 23 25 27 30 33 37 42 45 48 49 49 49 49 49 48 47 46 44 42 39 36 34 32 31 31 30 30 29 29 27 25 23 21 19 18 18 18 17 16 15 15 15 15 16 16 16 16 16 16 17 16
20 21 21 20 21 21 21 20 22 24 24 22 21 22 23 23 23 21 19 17 17 18 18 18 17 18 18 18 18 19 20 21 22 23 24 26 28 30 33 37 41 44 46 48 49 49 50 49 48 47 45 42 40 37 34 32 31 31 31 30 30 30 29 27 25 23 21 19 18 17 17 15 13 13 13 14 15 16 17 17 17 17 17 17 17 16
19 19 19 19 19 19 19 20 22 24 23 20 17 16 17 21 23 22 21 19 19 19 20 19 19 19 20 21 23 24 24 26 27 27 28 30 32 34 36 38 41 43 45 46 47 48 48 47 46 43 41 38 35 33 32 31 30 30 30 30 30 29 28 26 24 23 21 19 18 16 15 12 11 12 13 14 16 18 18 18 18 18 17 17 17 17
20 20 19 19 19 19 18 19 19 20 20 19 17 16 17 20 21 21 21 21 21 22 22 21 21 21 22 24 26 27 28 30 30 31 32 33 34 36 38 40 41 42 43 44 44 45 45 44 42 40 37 34 32 31 30 30 30 30 29 29 28 27 26 25 24 22 21 19 17 16 14 12 12 13 14 15 17 19 20 20 19 19 19 19 19 19
19 19 18 17 18 19 20 20 20 20 20 21 21 21 21 22 22 21 19 20 21 22 23 23 22 22 23 26 27 29 30 32 33 34 34 35 36 38 40 41 41 42 42 43 42 42 42 41 39 37 34 32 31 30 29 29 29 28 28 28 27 26 26 25 24 22 21 19 17 16 15 15 15 15 16 17 18 19 21 21 21 21 21 21 21 20
19 18 17 15 16 18 20 21 22 22 23 23 23 22 23 23 22 21 20 19 20 21 22 22 22 21 22 25 27 30 31 34 36 35 34 34 36 38 41 42 42 42 42 42 41 41 41 40 39 37 34 32 30 30 29 29 28 28 27 27 26 26 26 25 24 22 21 19 18 18 17 17 18 18 17 18 18 19 20 21 22 22 22 22 22 22
20 19 17 16 17 19 21 22 23 23 23 23 23 23 23 22 22 22 22 22 21 21 20 19 16 14 15 21 27 31 33 35 36 37 35 34 35 38 40 41 41 41 41 41 40 40 40 39 38 37 35 33 31 30 29 29 29 28 27 27 27 26 26 25 24 23 21 20 19 19 19 19 19 18 18 17 17 18 19 20 22 23 23 23 23 23
19 19 18 17 17 18 21 22 23 22 22 23 23 24 25 24 24 24 24 24 23 21 19 18 13 8 7 14 24 31 34 34 35 36 36 34 35 37 39 40 40 40 40 40 39 40 40 39 38 37 35 33 32 31 30 29 29 29 28 28 27 27 26 25 24 22 21 20 19 19 19 19 19 18 17 16 16 17 19 20 21 22 22 22 22 22
16 17 17 16 16 17 19 21 21 21 23 23 24 24 24 24 24 24 24 25 23 21 19 19 15 11 10 10 18 28 35 33 33 35 35 34 34 36 38 38 39 39 40 39 39 39 39 39 37 36 35 33 32 31 30 30 30 29 29 28 27 27 26 24 23 21 20 19 19 19 18 18 18 18 17 17 17 18 19 20 20 21 21 21 21 21
14 15 15 15 15 16 18 19 20 21 23 24 25 25 23 22 22 23 23 25 25 24 22 19 17 16 17 15 21 29 33 32 33 34 33 32 32 34 35 35 36 38 39 39 39 39 39 38 36 35 34 33 32 31 30 30 30 30 29 28 27 26 24 23 21 20 19 18 18 18 19 19 19 19 19 19 19 19 19 19 19 19 19 19 20 20
14 14 14 15 16 16 17 18 20 22 24 27 28 27 23 22 22 21 22 23 24 23 22 19 17 16 17 20 25 29 30 30 31 31 30 29 30 31 32 32 33 35 36 37 38 39 39 38 36 35 33 33 32 31 31 30 30 30 29 28 26 25 23 21 20 19 19 19 19 19 20 21 22 22 22 21 21 20 20 20 19 19 19 18 19 20
16 15 17 19 19 18 17 19 20 22 24 27 28 26 24 23 21 20 21 21 21 20 18 16 15 16 17 20 25 27 27 27 27 26 24 23 24 27 29 30 32 33 33 34 36 37 38 37 36 35 34 34 33 32 31 31 30 29 28 26 25 23 22 21 20 20 20 20 20 21 21 22 23 24 24 23 22 21 21 20 19 19 18 18 18 18
17 17 19 21 22 21 21 22 23 23 24 26 26 25 23 23 21 20 21 21 19 17 15 14 14 17 20 23 25 26 24 23 23 23 21 17 16 20 25 28 30 30 30 30 32 34 35 35 35 35 34 34 33 32 31 30 28 27 26 25 24 22 21 21 20 21 21 21 21 21 22 22 23 23 23 23 23 22 20 19 18 18 18 18 17 17
18 18 20 21 22 23 23 24 24 24 25 26 26 25 25 24 23 21 21 20 19 18 18 18 19 20 22 24 25 24 21 20 21 22 19 14 13 17 22 25 27 27 26 28 29 31 32 32 32 32 32 31 31 30 29 28 26 25 24 23 22 22 21 21 21 21 21 21 21 21 22 22 22 22 21 21 20 20 19 18 18 18 18 18 17 17
17 18 19 21 22 22 23 25 25 25 25 25 24 23 23 22 22 21 21 21 21 21 21 21 21 21 21 23 23 21 20 19 19 18 15 12 14 18 21 24 25 24 24 26 28 29 29 29 29 28 28 28 27 27 26 25 24 23 22 22 21 21 21 21 21 21 21 21 21 22 22 21 21 20 19 19 18 18 18 18 19 18 18 18 17 17
17 18 19 21 22 23 24 25 26 26 26 25 23 22 20 20 20 20 21 21 22 22 22 21 20 19 19 21 21 20 19 19 18 16 13 12 13 17 21 24 24 23 22 25 27 28 27 26 26 25 24 24 23 23 23 22 22 21 21 21 21 21 21 21 21 21 22 22 22 21 21 20 20 19 18 18 18 19 19 19 19 19 18 18 17 16
16 17 19 20 21 22 23 24 26 27 27 26 25 23 22 22 21 21 20 20 21 22 21 18 16 15 17 19 19 19 20 20 19 17 15 14 14 16 20 22 23 23 22 23 24 25 25 25 24 23 22 22 21 21 21 21 20 20 20 20 20 20 21 21 21 21 22 22 22 21 20 20 19 19 19 19 19 20 20 20 19 19 18 17 16 16
13 14 16 18 19 20 21 23 24 25 26 26 26 26 25 25 23 22 20 21 22 22 19 15 12 12 14 15 15 17 20 21 20 18 19 19 16 15 17 20 22 23 23 23 22 22 23 23 23 23 22 21 20 20 19 19 19 19 19 19 20 20 20 21 21 21 22 22 22 20 20 20 20 20 20 20 20 20 20 20 19 18 17 16 16 15
9 11 14 16 18 19 20 21 23 24 25 26 26 26 27 26 24 21 19 22 23 22 18 16 13 11 10 11 14 17 21 20 19 18 19 21 19 16 17 20 21 22 23 22 22 22 22 22 23 24 23 22 20 19 18 18 19 19 19 19 20 20 21 21 21 21 22 22 22 21 20 20 20 20 20 20 20 20 20 19 19 18 17 16 16 16
7 9 11 13 15 17 18 20 21 23 24 25 25 25 26 26 24 22 22 24 23 20 17 17 15 14 12 13 14 16 18 19 19 18 18 19 17 17 20 21 21 22 23 21 18 18 18 19 21 23 23 23 22 20 18 17 18 18 19 19 20 20 21 21 21 21 21 22 22 21 21 21 21 21 20 20 20 20 19 19 18 18 17 17 17 17
10 10 11 12 13 15 17 19 20 21 22 23 23 23 23 23 22 22 24 25 23 19 17 16 16 16 16 14 11 9 12 17 20 20 19 16 15 17 21 21 21 23 23 19 12 8 10 15 20 22 23 24 23 22 20 18 18 18 19 19 19 19 20 20 20 20 20 21 21 21 22 22 22 21 21 20 20 20 20 19 19 18 17 17 17 17
13 14 14 14 14 15 17 19 20 20 21 21 21 22 21 21 21 22 24 25 23 20 18 17 17 18 18 14 8 4 6 18 24 23 20 17 16 19 22 21 21 22 23 19 11 5 4 9 16 21 23 24 24 23 23 21 20 20 19 19 19 18 19 19 19 19 19 19 19 20 21 22 22 22 21 21 21 21 20 20 19 18 18 17 17 18
16 16 16 16 16 17 18 19 20 20 20 20 20 20 20 20 20 21 23 24 23 20 19 18 18 18 19 15 10 6 7 19 26 26 22 18 17 20 23 22 21 21 23 20 14 8 4 6 12 20 22 24 24 25 24 24 23 22 21 20 20 19 18 19 19 18 18 18 18 19 19 20 21 21 21 22 22 21 21 20 20 19 18 18 18 19
17 17 17 17 17 18 19 20 20 20 20 20 20 20 19 19 19 20 22 23 22 20 19 19 19 18 17 15 11 9 10 18 26 28 25 20 17 18 21 22 21 21 22 20 16 12 8 8 10 15 20 23 25 26 26 26 25 24 23 22 21 20 20 19 19 18 18 18 18 19 19 20 20 21 21 22 22 21 21 21 20 20 19 19 19 20
17 17 17 17 17 18 19 19 20 20 19 19 19 19 19 18 18 18 20 21 21 19 18 19 20 19 18 14 11 9 10 16 24 29 28 23 19 18 21 21 21 21 20 18 16 12 9 9 10 10 13 20 24 26 27 27 27 26 26 25 23 22 22 21 20 19 19 19 19 20 20 20 21 21 21 22 22 21 21 21 21 21 20 20 20 20
16 16 16 17 17 18 18 19 19 18 18 18 18 18 17 17 17 17 18 20 20 19 18 18 19 19 19 16 14 12 12 17 23 28 29 26 21 19 20 21 22 21 19 18 16 13 8 9 10 10 9 13 18 22 25 27 28 28 28 27 26 25 24 23 22 21 20 20 20 21 21 21 22 22 22 22 22 22 21 21 21 21 21 21 21 20
15 15 15 16 16 17 17 17 17 17 17 17 17 17 17 16 16 17 17 18 18 18 17 17 17 17 17 17 16 15 16 18 21 26 29 27 23 20 19 20 21 21 19 17 16 13 10 9 9 9 9 9 10 14 20 24 26 27 28 28 28 27 26 25 24 23 21 21 21 21 21 22 22 22 22 22 22 22 22 22 22 22 21 21 21 21
14 13 14 15 16 16 16 16 16 16 16 16 16 16 16 16 16 16 16 16 17 17 16 16 16 15 15 15 15 14 14 15 18 23 28 27 24 21 19 19 20 20 18 16 15 14 12 10 8 8 7 6 7 9 14 19 22 24 25 27 28 28 27 26 26 25 23 21 21 20 21 21 21 21 20 20 21 21 21 22 22 22 22 21 22 22
12 12 13 14 15 16 16 16 16 16 17 16 16 16 15 15 15 15 15 15 15 15 15 15 15 14 14 13 11 10 9 11 14 20 26 27 24 21 18 17 18 18 18 17 16 15 14 11 9 7 7 6 7 8 12 16 18 20 22 24 26 26 26 26 26 26 24 22 21 20 20 21 21 20 19 19 20 20 21 22 22 22 22 21 21 22
12 12 13 13 14 15 15 15 16 16 16 16 16 16 16 15 15 14 14 14 14 14 14 14 14 13 13 12 10 9 8 10 13 18 23 26 24 21 18 17 16 17 17 16 16 15 14 12 11 10 9 8 7 8 11 13 15 17 18 19 21 23 24 25 25 25 24 23 22 20 20 20 21 21 21 20 20 20 20 21 21 22 22 21 21 21
12 12 12 13 14 14 15 16 17 17 17 16 16 16 16 15 15 14 14 14 14 14 14 14 13 13 12 12 11 11 11 13 15 18 22 24 24 21 18 16 16 16 16 15 14 14 13 12 11 11 10 9 9 9 10 12 14 15 16 14 15 18 21 23 24 25 24 23 22 20 19 20 21 22 22 22 21 21 20 20 20 21 21 21 21 20
12 12 12 13 14 15 16 17 18 18 17 17 16 16 15 16 15 15 15 14 14 14 13 13 13 13 13 12 12 12 13 15 17 19 21 23 23 22 18 16 16 16 16 15 14 14 12 11 10 9 9 9 9 10 11 12 13 14 14 13 12 15 18 20 22 24 24 24 22 21 19 19 20 22 22 21 21 20 20 20 19 19 20 20 20 20
12 12 13 14 15 16 17 18 18 18 18 17 17 16 16 16 17 17 17 16 15 15 14 14 14 14 14 14 13 13 14 15 16 18 19 21 22 21 18 16 15 15 15 15 14 13 12 11 10 9 9 9 9 9 9 11 13 13 13 12 11 11 12 16 20 22 23 23 22 21 19 19 19 20 21 20 20 20 21 21 21 21 21 21 21 21
12 13 15 16 17 18 18 19 18 18 18 17 17 17 17 17 17 18 18 18 17 16 15 15 15 16 16 16 15 14 14 15 15 16 17 18 19 19 18 16 15 14 15 14 14 13 12 11 10 9 10 10 10 9 9 10 11 12 12 12 11 10 7 11 16 20 22 23 23 22 20 19 18 19 19 19 20 21 23 23 23 23 23 23 23 23
13 15 16 18 18 19 19 18 18 18 17 17 17 17 17 17 17 18 18 18 18 17 17 16 16 16 16 16 15 15 15 15 16 16 17 17 17 17 16 15 14 13 14 14 13 12 12 10 9 9 10 10 9 9 8 9 11 11 11 11 12 11 9 10 13 18 20 22 22 23 22 19 19 19 19 20 21 23 24 24 25 25 25 25 25 25
15 16 17 18 19 19 18 18 18 17 16 16 17 17 17 17 17 17 18 18 17 17 17 17 16 15 13 13 14 15 15 16 16 16 17 17 17 16 15 14 12 12 12 12 12 12 11 10 10 10 10 10 9 8 8 8 9 10 11 11 11 10 9 10 12 15 18 20 21 23 24 21 19 19 19 20 22 23 24 25 25 26 26 26 26 26
16 17 18 18 18 18 17 17 17 16 16 16 17 17 17 17 16 16 16 17 17 16 16 16 14 12 11 12 13 13 14 14 15 16 16 16 16 16 15 14 13 12 11 10 10 11 10 10 10 11 11 10 9 8 8 8 8 9 9 10 10 9 9 9 10 12 15 18 20 21 23 22 20 19 18 19 21 23 24 25 25 26 26 26 27 27
17 18 18 18 17 16 16 17 16 15 15 15 15 16 16 16 15 15 15 15 16 15 15 14 12 11 10 11 12 12 12 12 13 14 15 16 16 15 15 15 14 14 13 12 11 10 9 10 10 11 11 10 9 8 8 7 7 8 8 9 9 8 8 8 9 11 13 16 18 20 22 22 20 18 17 17 18 20 22 24 25 26 27 27 27 27
17 18 17 17 16 16 16 16 15 14 14 14 15 15 15 16 15 14 14 14 15 14 13 12 10 10 10 11 11 12 12 12 12 13 14 14 15 15 15 14 14 13 13 12 11 11 10 10 10 10 10 9 8 8 8 8 7 7 7 8 8 8 7 8 9 10 11 14 16 19 21 22 20 18 16 15 15 16 18 21 24 26 27 27 28 28
16 16 16 16 16 16 15 15 15 14 14 14 14 14 15 15 15 14 13 14 14 13 12 11 10 9 9 10 11 11 12 12 12 12 13 14 14 15 15 14 14 13 12 11 10 9 9 9 9 9 10 8 7 7 7 8 8 7 6 6 7 7 6 7 8 9 11 13 16 18 20 21 20 18 15 13 12 12 14 17 21 24 26 28 28 28
15 15 15 15 15 15 15 15 14 13 13 14 14 14 13 13 13 13 13 13 12 11 11 10 10 10 10 10 11 11 11 11 11 12 12 13 14 15 15 14 14 12 11 9 8 7 6 6 7 8 10 10 8 7 6 7 8 8 7 6 6 6 6 6 7 9 10 12 14 16 19 19 18 17 15 13 12 11 12 13 16 20 24 25 26 27
14 14 15 14 14 14 14 14 14 13 13 14 14 14 13 13 12 12 11 11 11 10 10 10 10 10 10 10 11 11 11 12 11 11 12 13 14 15 15 14 13 12 10 8 7 6 5 4 4 5 8 10 11 9 7 6 8 9 8 7 7 6 6 6 7 8 10 11 12 13 16 17 17 16 15 13 11 11 11 11 13 16 20 22 23 23
Wind_Direction
199 206 208 208 207 207 210 211 210 210 213 215 216 216 216 217 218 221 223 224 225 225 224 222 221 221 221 223 225 227 228 228 228 230 232 233 234 234 234 235 236 238 239 235 230 224 215 203 195 191 187 184 181 178 175 173 171 170 170 169 170 171 173 176 179 181 182 182 183 183 183 182 180 178 176 175 175 175 176 178 180 181 181 181 180 179
194 200 203 205 204 205 209 210 209 208 211 213 213 213 213 213 214 217 220 221 222 222 221 219 217 216 217 220 223 225 225 226 228 230 233 235 235 235 235 235 236 238 238 233 227 219 209 200 194 190 186 182 179 176 174 172 171 170 169 169 170 172 175 178 180 181 181 180 180 180 181 182 182 180 178 177 177 177 177 179 181 183 183 182 181 180
186 191 196 200 201 203 206 208 208 207 210 211 211 211 210 210 212 215 218 220 221 222 222 221 219 218 218 220 222 223 224 226 229 232 234 236 237 236 236 235 236 237 235 230 223 214 205 197 192 188 184 180 177 175 173 172 171 171 170 171 172 174 177 178 179 180 179 178 178 178 180 182 182 182 180 179 178 177 177 179 182 183 183 182 182 183
185 187 191 195 197 200 204 206 205 205 207 209 209 208 207 207 210 214 217 218 220 223 224 225 224 222 221 223 224 225 225 227 229 232 235 237 238 238 237 237 236 235 231 225 217 209 201 195 189 185 181 178 176 174 173 172 172 171 171 172 173 175 176 177 177 177 177 176 177 177 179 181 182 182 181 180 180 179 178 180 182 184 184 185 186 189
187 189 190 190 192 196 202 204 203 201 202 204 205 205 205 206 210 214 216 218 221 223 226 228 227 225 225 226 227 227 227 228 230 232 235 238 239 240 239 238 236 232 225 217 209 203 197 192 187 182 179 176 174 173 172 172 171 171 171 172 173 175 176 176 176 176 176 176 176 176 177 179 180 180 180 180 180 180 181 183 187 190 192 192 194 196
188 189 190 188 189 193 197 200 200 198 197 199 201 202 202 206 209 213 215 217 220 223 225 227 227 226 226 228 228 228 227 227 228 231 234 238 239 239 238 235 231 223 214 205 199 193 190 186 183 179 177 175 173 172 171 171 171 171 171 172 173 174 175 176 176 176 176 175 173 172 172 173 174 176 178 180 181 183 185 188 192 195 197 198 197 197
184 185 186 186 188 191 194 196 196 196 194 193 194 196 199 202 206 209 212 214 217 219 222 223 224 225 225 226 226 225 224 223 224 227 232 235 237 236 233 228 220 209 200 192 187 183 180 178 176 174 173 172 171 170 170 170 170 171 172 173 174 175 176 176 177 177 176 175 173 172 172 173 175 177 180 182 184 185 188 191 194 196 197 197 197 197
175 178 179 180 183 187 191 192 193 193 192 190 188 188 190 193 197 200 203 206 209 212 214 216 218 220 221 221 221 219 217 216 217 220 224 227 227 226 223 217 207 197 188 183 179 177 174 172 170 169 168 168 167 168 168 169 170 171 172 174 175 177 178 179 180 180 180 180 180 182 185 186 185 184 184 183 184 185 188 191 193 195 195 195 195 197
172 174 178 179 180 180 184 189 190 190 190 190 187 183 180 180 182 185 188 192 196 200 202 205 208 211 214 214 212 210 207 206 206 207 210 209 208 208 206 202 195 188 182 177 175 174 172 169 167 166 166 166 166 166 167 169 170 171 173 175 178 180 182 183 184 185 186 188 192 197 201 200 196 190 185 182 182 184 187 191 193 195 195 194 194 196
175 175 177 181 183 182 180 183 186 186 186 187 186 185 181 175 171 169 170 174 180 185 190 193 194 196 199 201 200 197 193 191 191 193 195 195 195 195 193 189 185 181 177 174 172 171 169 168 167 166 166 166 166 167 168 170 172 174 176 178 181 183 185 186 188 189 191 194 200 206 208 205 198 189 182 182 182 184 188 191 194 196 196 194 194 195
174 174 174 178 183 185 183 181 181 181 180 180 181 181 180 178 173 167 162 164 167 171 175 181 182 179 176 178 182 183 180 176 177 179 182 183 184 183 182 179 176 175 173 172 171 169 168 167 166 166 166 167 168 169 171 173 175 177 179 181 183 185 187 188 190 191 194 198 203 207 206 200 189 181 180 183 186 187 189 191 194 195 196 195 194 195
173 173 174 175 177 179 179 178 177 175 174 171 170 172 177 178 177 174 169 165 162 162 163 167 168 166 163 162 165 170 172 168 166 166 168 169 170 170 169 168 168 168 167 167 168 167 167 166 166 166 167 169 170 172 174 176 179 180 182 183 185 187 188 189 191 193 195 199 203 205 200 188 178 176 182 187 189 191 191 192 193 194 196 195 194 194
173 173 173 173 174 173 171 168 168 169 171 171 171 173 177 178 177 175 172 167 163 161 159 157 157 158 158 157 157 159 162 161 160 159 158 158 160 160 160 159 159 159 160 160 162 163 165 166 166 168 170 172 174 176 178 179 181 183 184 185 187 188 189 191 192 194 196 199 201 200 192 179 174 178 185 190 192 192 192 192 193 194 196 197 196 195
169 169 169 170 173 175 173 169 168 171 176 179 180 179 177 174 171 168 162 160 160 159 157 153 152 153 155 154 154 154 156 156 155 153 152 153 155 156 156 155 155 156 156 157 158 161 164 166 167 170 173 175 177 179 180 182 183 185 186 187 188 190 191 192 193 195 197 198 198 195 187 178 177 182 188 192 194 194 194 194 194 196 198 198 198 197
166 166 168 172 176 178 178 176 176 177 180 181 180 177 173 170 166 162 155 152 152 153 151 148 148 151 152 151 152 153 153 153 152 150 149 151 153 155 156 155 155 156 157 157 158 161 165 167 168 171 174 177 179 181 182 183 185 186 188 189 190 191 192 193 194 195 195 195 195 192 187 182 181 184 188 191 193 196 197 199 199 200 200 201 200 199
169 170 172 175 179 180 182 181 180 180 179 178 175 171 166 166 165 162 157 153 151 149 147 143 143 148 155 156 154 153 152 153 152 150 149 150 153 155 156 155 155 155 157 158 159 162 166 168 170 172 175 178 181 182 183 183 185 187 189 190 191 192 192 193 194 194 194 194 194 193 190 187 184 184 186 189 192 196 200 203 204 205 205 205 204 203
172 175 177 177 178 181 182 181 180 178 175 172 171 169 168 168 167 164 160 156 154 153 154 153 151 151 161 164 158 154 153 153 153 153 151 152 154 156 157 157 156 156 158 160 161 164 167 169 171 173 176 179 182 183 184 184 186 187 189 191 192 192 192 193 193 194 194 195 195 196 194 190 187 185 187 190 194 198 202 206 208 209 210 210 210 209
171 175 176 175 176 177 177 178 178 176 171 169 168 169 170 170 168 165 162 159 159 160 163 164 164 163 163 176 168 159 154 154 154 153 152 153 156 159 159 159 158 158 159 161 164 167 170 172 173 175 178 180 182 183 184 185 186 187 190 191 192 192 192 193 194 195 196 197 198 197 195 191 188 187 190 194 197 200 203 207 209 212 214 215 216 216
171 173 172 173 172 172 173 176 176 173 170 168 166 165 165 168 168 166 165 164 164 165 166 169 170 169 168 175 172 164 156 156 155 153 151 154 158 160 161 160 160 159 159 162 165 169 172 174 176 178 180 181 183 184 185 186 187 189 190 191 192 193 194 195 196 198 199 199 198 197 194 190 188 188 192 195 198 201 204 206 208 210 213 217 220 221
173 174 174 172 168 167 172 177 178 176 173 170 166 163 162 164 166 167 167 167 168 168 168 169 170 170 168 172 172 167 159 157 155 153 151 153 158 161 162 161 160 158 158 161 165 169 172 174 177 179 181 183 184 185 186 187 188 190 191 192 194 195 197 198 199 200 199 198 197 195 193 191 190 191 194 196 198 201 203 205 207 209 210 215 220 223
175 179 181 178 172 170 175 180 181 179 175 170 165 162 162 164 166 168 169 167 166 165 165 165 166 167 166 167 169 168 161 157 154 152 150 151 155 160 161 161 160 158 156 158 163 167 170 172 175 178 180 182 183 184 185 187 188 190 191 193 195 197 199 201 201 201 199 198 197 196 194 194 195 196 199 200 201 203 204 206 208 209 211 214 218 222
179 181 183 183 180 178 178 180 181 180 177 171 166 163 164 165 168 169 168 165 162 159 157 154 156 161 163 164 166 165 161 158 156 153 148 143 146 154 158 159 158 155 152 154 159 164 167 169 172 174 177 179 181 182 184 186 187 189 191 193 195 197 199 201 200 198 197 198 198 197 196 197 198 201 203 204 206 206 206 207 209 211 213 215 217 220
185 183 184 184 183 182 181 180 180 179 177 174 171 169 169 170 170 168 166 163 158 154 149 147 149 154 158 159 161 161 160 158 156 152 144 140 142 149 153 155 153 150 147 150 155 160 164 166 168 170 173 176 178 180 182 184 186 188 190 192 194 196 198 199 198 195 195 198 200 199 198 199 201 204 206 208 208 208 207 207 208 211 214 215 217 218
190 187 185 185 185 185 184 181 180 178 177 175 174 173 173 172 170 167 164 161 156 150 145 142 141 142 147 151 153 155 158 156 153 149 143 140 143 147 149 150 147 143 142 148 154 159 163 164 166 168 171 174 177 179 181 184 186 188 191 192 194 195 197 199 199 197 197 200 201 201 200 201 203 206 207 207 206 205 205 205 207 210 212 216 218 220
195 192 189 188 188 188 187 185 182 179 177 176 174 172 169 167 165 162 160 157 152 146 140 134 129 130 138 146 150 154 158 157 154 151 143 135 136 142 145 149 147 143 143 150 157 162 164 165 167 169 172 175 179 182 184 186 188 191 193 195 196 197 199 201 202 202 202 203 204 203 202 203 204 205 205 203 202 203 204 205 206 208 210 216 221 223
201 198 195 193 192 192 191 188 185 182 180 178 175 173 169 166 163 159 155 152 148 143 136 131 129 135 144 149 153 157 160 162 162 159 149 140 136 139 144 151 152 150 149 153 158 162 163 164 167 170 172 176 181 186 188 191 193 195 197 199 200 201 202 203 204 204 205 206 206 204 203 204 204 203 201 201 202 203 204 206 208 210 213 218 224 227
203 202 198 195 193 191 190 187 184 182 181 180 179 177 174 170 163 156 152 152 152 148 142 139 139 142 147 152 157 162 164 166 168 166 159 151 144 143 149 154 156 154 151 152 156 160 161 163 165 169 172 176 181 187 192 194 197 199 201 202 204 204 205 205 205 205 206 207 207 205 204 203 203 202 201 202 203 205 207 209 211 213 216 218 222 225
191 195 194 192 190 188 186 183 182 181 180 180 181 181 179 173 165 158 160 162 160 155 150 148 147 148 151 156 162 167 170 170 170 170 167 158 152 149 156 159 159 157 152 151 156 160 162 163 166 170 172 175 179 183 189 195 199 202 204 204 205 206 207 207 206 206 207 208 208 207 205 204 203 203 203 204 205 207 209 211 213 214 215 215 217 219
162 173 181 183 182 181 179 178 178 178 179 180 181 182 182 177 171 168 170 168 164 158 155 154 154 153 154 155 160 168 175 175 174 173 172 160 153 154 160 161 162 160 156 152 153 159 164 167 170 172 175 177 179 180 184 190 196 201 203 204 205 206 208 208 208 207 208 210 211 209 208 206 205 204 204 206 208 210 211 212 212 211 211 212 214 216
143 151 159 166 170 172 172 172 173 175 177 178 179 180 181 181 179 176 174 170 166 161 158 155 154 152 149 147 148 164 184 186 182 178 176 162 152 155 163 163 165 165 161 153 146 149 168 177 178 178 179 181 182 184 185 187 192 197 199 200 202 204 207 209 209 210 213 215 215 214 212 210 208 208 208 209 211 212 212 212 210 209 209 210 212 215
141 144 148 153 158 163 166 167 169 171 173 175 176 177 178 180 182 181 177 172 169 166 162 157 154 152 151 149 146 157 191 195 189 184 181 169 159 161 166 166 168 170 170 163 153 142 170 187 190 190 187 186 187 189 190 190 192 195 197 199 201 204 207 210 213 215 217 219 219 219 218 216 215 213 212 212 212 213 213 211 209 208 208 209 212 215
141 143 145 148 152 157 161 163 165 166 169 171 174 176 178 181 184 184 180 176 174 171 166 161 158 157 159 162 165 169 180 193 191 188 186 174 165 166 171 170 169 172 176 173 167 157 151 170 193 199 196 194 193 194 196 196 196 197 198 200 203 206 210 213 216 218 219 219 220 221 221 221 219 217 214 213 213 213 213 212 210 208 208 209 212 216
141 142 143 146 149 153 157 160 162 164 166 170 173 176 180 183 186 187 184 180 178 175 172 166 163 162 164 166 167 169 178 189 191 191 189 181 171 168 172 172 171 173 177 178 174 165 151 149 174 193 201 202 202 201 202 203 203 203 203 204 206 209 212 215 217 218 218 218 219 219 221 221 220 219 216 214 213 213 213 213 211 210 210 212 214 217
140 141 142 143 146 149 153 157 160 163 166 170 174 177 180 183 185 185 184 181 180 179 178 174 170 167 166 166 168 172 181 190 193 193 192 189 180 172 173 173 173 173 175 177 177 172 159 154 156 169 190 202 206 208 209 209 209 209 210 211 211 213 214 215 215 215 216 217 217 218 218 219 219 218 216 215 214 213 213 213 213 213 213 215 216 218
138 139 141 142 144 146 150 154 157 160 163 168 172 177 180 182 183 182 181 180 180 180 181 181 179 176 174 173 175 179 183 191 194 194 193 192 187 178 175 176 177 177 176 178 179 176 163 159 158 157 164 187 202 211 214 214 214 215 216 217 217 218 218 217 215 214 214 214 215 216 216 216 215 215 214 214 213 213 213 214 215 215 216 219 220 221
137 138 141 143 144 145 147 150 152 155 159 164 170 175 178 179 179 179 178 179 179 179 179 180 181 183 184 185 187 189 190 193 193 193 193 193 191 184 178 179 182 182 179 179 180 179 169 162 162 161 159 166 186 205 213 217 218 218 218 219 220 220 221 220 218 215 212 212 213 214 214 213 212 212 212 212 212 212 213 215 216 217 217 220 224 226
139 141 144 146 147 147 148 149 152 154 157 161 166 171 174 175 175 175 175 176 177 177 177 179 180 183 187 192 197 200 200 197 194 192 192 193 193 190 182 182 185 186 183 181 181 181 177 169 165 166 167 167 174 190 203 211 214 216 218 219 220 220 220 220 219 216 213 211 211 211 211 210 210 209 210 210 211 212 213 215 216 217 218 220 224 229
142 144 148 150 150 150 150 150 153 156 158 159 162 165 168 169 170 170 171 172 174 175 176 177 178 180 184 188 193 198 199 195 192 191 190 192 194 192 185 182 183 187 188 185 183 180 178 173 171 177 185 187 184 187 193 200 204 209 214 218 219 219 219 219 219 217 214 212 211 211 210 209 208 207 207 207 208 210 211 213 215 216 218 220 224 229
146 148 150 152 153 152 152 153 155 159 161 160 161 162 164 166 166 167 167 168 170 172 174 175 175 176 176 177 176 174 174 179 183 186 188 191 193 193 188 181 180 183 188 188 185 183 182 182 184 187 191 191 190 191 196 198 199 202 207 212 215 217 218 218 217 216 214 212 210 210 210 209 207 206 206 206 206 207 208 210 212 213 215 217 222 228
150 151 152 154 155 156 156 157 160 162 163 162 162 163 164 163 163 163 164 165 166 168 171 173 172 171 169 166 161 157 159 165 173 179 185 189 192 193 190 183 179 180 184 185 185 184 186 189 193 195 195 193 189 188 192 195 197 197 197 198 206 213 216 216 216 214 213 211 210 209 209 209 209 208 208 208 208 207 207 209 210 211 211 213 217 221
152 151 152 155 157 158 160 162 164 165 165 164 162 161 161 160 159 158 158 160 161 162 164 166 165 163 161 157 154 153 156 162 170 177 183 189 192 193 191 186 182 180 181 183 184 186 187 190 192 195 195 190 187 187 190 193 195 194 192 192 198 207 213 215 214 213 211 210 209 209 209 210 210 210 210 210 211 210 209 209 209 210 210 212 214 216
152 151 153 156 158 160 162 164 165 165 166 164 161 159 160 161 159 157 155 154 154 156 159 159 156 152 149 149 150 152 155 161 169 176 182 188 192 195 194 190 186 184 182 182 183 186 189 190 191 191 189 185 182 181 186 192 195 195 193 191 191 197 208 214 215 213 210 209 208 208 209 210 210 210 210 210 211 211 211 211 211 210 210 211 213 215
153 155 157 159 160 162 163 163 162 162 162 160 159 159 162 163 162 160 157 153 152 153 155 155 153 149 143 142 145 151 155 159 165 172 180 186 192 196 197 195 192 188 185 182 182 185 190 192 194 194 193 190 185 181 179 185 191 193 193 191 187 182 184 203 211 212 209 208 207 206 207 208 208 208 208 210 211 213 214 215 215 215 215 214 216 218
157 159 160 161 162 163 162 160 159 158 158 157 158 160 162 164 164 161 158 154 153 153 153 153 152 148 141 139 142 148 155 159 163 168 174 181 187 192 196 196 193 191 187 183 181 183 186 190 193 194 193 191 187 183 181 183 186 189 190 192 192 192 191 200 205 206 205 205 205 205 205 205 206 207 208 210 214 217 218 219 220 221 221 222 222 223
160 160 160 161 161 160 158 158 158 158 159 159 159 160 161 163 164 162 159 156 155 154 154 153 150 144 137 140 144 149 153 158 162 167 171 176 181 185 190 190 188 186 185 184 183 183 183 185 188 191 191 188 187 186 184 181 182 185 187 190 193 198 205 214 215 209 202 201 203 205 205 205 206 207 210 213 216 219 221 222 223 224 225 226 227 227
161 160 159 159 159 159 159 160 159 158 158 159 159 160 161 162 162 162 160 158 156 155 154 155 152 147 143 146 148 149 151 156 162 167 171 174 178 181 185 186 184 181 180 180 182 184 186 187 187 187 186 184 186 189 188 181 176 177 183 186 187 190 202 216 220 213 204 200 200 202 204 205 205 207 210 214 218 221 223 224 226 227 227 229 230 230
162 160 159 159 159 159 160 160 159 157 156 156 158 159 160 162 161 160 160 160 158 156 155 156 155 152 150 152 153 152 152 154 159 165 170 174 177 181 184 186 187 186 183 181 180 181 185 189 192 190 183 178 181 187 187 182 175 172 176 180 182 185 194 206 213 211 204 199 198 200 202 202 203 205 209 213 218 222 225 227 228 228 229 230 231 232
163 162 160 159 158 157 158 158 158 156 155 156 158 160 161 162 161 159 159 160 159 157 155 156 155 153 152 154 157 157 156 155 157 162 168 173 177 181 184 186 187 187 187 185 183 183 186 190 194 191 184 178 178 181 182 181 177 172 172 177 179 182 188 200 208 207 199 196 198 201 201 200 199 201 204 209 214 220 226 229 230 231 231 231 232 234
165 163 162 160 158 157 157 158 158 157 156 156 157 159 160 162 162 160 160 160 159 158 157 157 156 154 152 154 157 157 157 156 157 160 165 170 175 178 180 182 182 182 181 181 182 185 188 192 193 191 186 182 180 178 176 180 180 176 171 174 177 178 181 193 205 206 199 197 201 204 204 202 201 201 202 205 210 217 224 231 234 235 235 236 236 237
166 165 163 161 159 158 158 159 159 158 157 157 156 156 157 159 160 161 160 159 159 160 161 161 159 156 154 155 156 157 157 156 157 159 164 168 172 173 174 174 173 171 170 172 176 179 181 189 194 194 189 186 182 177 172 177 183 184 181 179 179 178 177 188 203 208 203 201 204 207 207 205 204 203 204 208 213 218 224 230 235 240 242 242 242 242
167 166 165 163 162 161 160 160 159 159 158 157 156 155 155 156 157 158 159 159 159 161 162 162 161 158 155 155 156 158 159 158 158 160 163 167 169 169 168 167 165 162 159 160 161 162 164 171 186 199 201 196 191 185 177 176 182 186 186 187 188 184 179 188 202 209 206 204 206 208 207 205 204 204 206 209 214 220 226 230 235 241 247 248 248 246